Temp
6 6 6 6 5 5 5 5 4 3 4 6 6 7 7 8 8 8 8 9 9 10 10 10 10 9 9 9 9 10 10 11 12 11 11 12 11 11
5 5 5 5 5 5 5 5 4 3 3 5 5 6 6 6 7 7 8 8 8 9 9 9 10 10 9 9 8 9 9 11 11 11 11 12 11 11
4 4 4 4 4 4 4 4 4 3 3 4 4 5 5 5 6 6 7 7 8 8 9 9 9 9 9 9 9 9 9 9 10 10 11 11 11 11
3 3 3 3 3 3 2 2 2 2 2 1 3 3 4 4 4 5 6 6 7 7 8 8 9 8 9 9 9 9 9 9 9 9 10 11 11 11
2 2 1 1 1 1 1 0 0 -0 0 -0 0 1 2 2 3 4 5 5 6 6 7 8 8 8 8 8 8 8 9 9 9 8 10 10 11 10
0 0 0 0 -0 -0 -1 -1 -1 -1 -1 -1 -1 -1 0 1 1 2 2 3 4 5 6 6 7 8 8 8 7 7 8 8 8 8 8 9 10 11
-1 -2 -2 -2 -2 -2 -2 -2 -2 -2 -2 -2 -1 -1 -1 -0 -0 1 1 2 2 3 5 5 6 7 7 7 6 7 7 7 7 7 6 8 8 9
-3 -4 -4 -4 -3 -3 -3 -3 -3 -3 -3 -3 -3 -3 -2 -2 -1 -1 0 -0 -0 2 -0 1 3 5 6 6 6 6 6 6 6 6 6 6 8 8
-4 -4 -4 -4 -4 -4 -4 -3 -3 -3 -3 -4 -3 -3 -3 -3 -3 -2 -1 -1 -1 -0 -0 -0 0 2 4 4 4 5 5 6 6 4 4 6 7 9
-4 -4 -5 -5 -5 -5 -5 -5 -5 -5 -4 -4 -4 -4 -3 -3 -3 -3 -2 -2 -2 -2 -1 -1 1 1 2 3 3 4 4 5 5 5 5 5 6 7
-5 -5 -5 -5 -4 -4 -4 -4 -4 -4 -4 -4 -4 -4 -4 -3 -3 -3 -3 -3 -3 -2 -1 -2 -1 0 0 2 3 2 3 3 3 5 4 5 6 6
-5 -5 -5 -5 -5 -5 -5 -4 -4 -4 -4 -4 -4 -4 -3 -3 -3 -3 -3 -3 -3 -4 -2 -2 -2 -0 -1 1 3 2 3 3 2 4 4 4 5 6
-6 -5 -5 -5 -5 -5 -5 -5 -4 -4 -4 -4 -4 -4 -4 -4 -3 -3 -3 -3 -3 -3 -1 -1 -1 -2 -1 -1 1 1 1 2 2 1 3 4 5 4
-5 -5 -5 -5 -5 -4 -4 -4 -4 -4 -4 -4 -4 -4 -4 -4 -4 -3 -3 -2 -3 -2 -2 -1 -1 -2 -2 -4 -4 1 1 0 -1 -0 0 2 4 4
-5 -5 -5 -5 -6 -5 -5 -5 -4 -4 -4 -4 -4 -4 -3 -3 -3 -3 -3 -2 -2 -3 -2 -2 -2 -2 -1 -2 -1 -2 -2 -1 -2 -2 -2 -0 2 2
-5 -5 -6 -6 -6 -6 -6 -5 -5 -4 -4 -4 -4 -4 -4 -4 -3 -3 -3 -3 -3 -3 -3 -3 -2 -3 -3 -3 -1 -2 -2 -3 -4 -4 -4 -4 -2 -1
-5 -6 -7 -7 -7 -7 -7 -6 -6 -5 -4 -4 -4 -4 -4 -4 -4 -3 -3 -3 -3 -3 -4 -3 -3 -3 -3 -2 -4 -3 -3 -4 -5 -5 -5 -6 -6 -5
-6 -6 -7 -8 -8 -7 -7 -7 -6 -6 -5 -4 -4 -4 -4 -4 -4 -3 -3 -3 -3 -4 -5 -5 -5 -5 -5 -5 -4 -4 -4 -5 -5 -5 -5 -6 -7 -6
-7 -7 -7 -7 -8 -8 -8 -8 -8 -7 -6 -4 -3 -3 -3 -3 -3 -3 -3 -3 -4 -5 -5 -5 -5 -5 -6 -6 -7 -6 -5 -6 -6 -6 -6 -6 -7 -7
-8 -8 -8 -8 -8 -8 -8 -9 -8 -8 -7 -7 -6 -5 -4 -3 -4 -4 -4 -5 -6 -6 -6 -5 -5 -5 -6 -8 -9 -7 -6 -6 -6 -7 -7 -6 -7 -7
-10 -10 -10 -9 -9 -9 -9 -8 -8 -9 -8 -8 -7 -6 -5 -4 -5 -4 -5 -5 -6 -6 -6 -6 -6 -5 -5 -6 -9 -8 -7 -7 -6 -6 -7 -7 -8 -8
-11 -11 -11 -10 -10 -9 -9 -8 -8 -8 -9 -8 -8 -8 -8 -7 -6 -6 -6 -6 -7 -6 -8 -8 -7 -7 -7 -8 -11 -11 -10 -9 -8 -8 -7 -7 -7 -8
-12 -12 -11 -11 -10 -10 -9 -9 -9 -9 -9 -9 -9 -8 -8 -8 -8 -8 -8 -7 -8 -8 -8 -8 -8 -8 -9 -10 -10 -11 -11 -10 -11 -10 -9 -9 -8 -7
Height
771 772 772 771 769 768 766 764 761 756 752 752 751 750 749 746 744 743 742 741 740 739 739 740 740 741 742 743 742 741 742 739 745 752 757 767 774 783
767 766 765 764 763 761 759 757 755 753 747 749 746 746 745 743 740 739 738 737 734 733 733 734 736 736 735 736 738 736 738 740 737 740 747 749 764 773
762 761 758 758 755 754 752 750 748 747 742 741 741 741 740 739 737 735 733 732 732 732 731 732 733 732 730 731 732 732 733 735 737 735 735 743 749 759
755 754 751 750 748 746 745 743 742 741 738 734 735 734 734 734 733 731 729 727 727 728 727 726 726 725 725 726 726 727 729 729 729 732 729 731 740 745
749 747 744 743 741 740 739 738 737 735 733 731 730 731 729 729 728 727 725 724 722 722 721 720 720 719 719 719 720 721 721 723 725 728 725 725 727 737
743 742 740 738 736 734 733 731 730 728 726 725 723 724 725 725 724 722 720 720 718 717 715 713 713 712 712 712 713 713 715 717 718 718 720 722 724 720
737 735 733 731 729 727 726 723 723 721 718 716 714 716 716 718 718 717 715 714 713 713 709 707 707 705 706 706 706 706 707 709 711 712 715 716 717 718
729 727 724 721 718 716 714 713 714 712 709 710 709 708 707 711 711 711 709 709 709 707 705 702 701 699 699 700 699 699 700 701 702 705 707 709 709 710
722 719 716 713 710 708 705 703 702 701 701 702 701 701 700 703 705 703 703 703 702 702 701 700 697 693 693 695 695 694 693 694 695 696 698 700 702 705
715 712 709 705 702 700 697 695 693 691 690 691 691 691 692 694 695 696 697 697 696 695 698 695 694 690 689 689 688 687 686 686 687 688 690 692 694 699
708 705 701 697 694 692 688 685 683 680 680 680 680 681 683 685 686 688 688 690 688 689 691 691 688 688 685 682 682 681 681 680 680 680 681 683 685 689
701 696 692 688 684 682 679 676 672 669 670 670 670 671 672 673 675 677 678 678 681 681 681 683 682 684 681 676 675 675 675 675 674 672 672 673 675 678
694 688 684 679 675 672 669 667 663 663 662 662 661 661 662 662 664 666 667 669 671 671 674 675 676 676 675 673 670 671 672 669 668 666 663 663 665 669
687 682 677 673 668 662 659 657 656 655 654 652 652 651 652 653 653 655 657 659 661 664 667 669 670 672 671 670 668 666 667 668 666 663 659 658 658 659
684 679 673 668 663 658 654 652 650 648 646 644 642 641 642 643 646 648 650 653 655 656 658 660 662 664 666 666 665 663 664 665 664 662 659 658 654 653
681 676 671 666 660 656 651 647 644 641 638 635 634 634 635 638 640 641 644 647 648 648 649 651 653 657 659 660 660 660 661 667 664 664 662 662 656 653
680 676 669 664 660 655 650 646 641 638 634 630 628 629 631 633 634 636 639 641 642 641 641 642 645 650 652 655 657 656 660 664 664 666 667 666 662 659
680 676 672 668 663 658 653 648 643 639 634 631 629 629 629 629 630 632 634 635 636 636 638 639 641 646 650 653 654 654 658 662 664 667 668 669 669 667
682 678 674 671 666 662 658 653 648 643 637 633 631 629 628 627 627 628 630 631 633 635 637 638 640 643 646 651 653 653 659 661 664 667 668 669 672 673
684 681 678 674 670 666 662 657 651 646 641 637 634 631 629 628 628 628 630 631 633 636 638 641 642 643 645 649 653 657 659 662 665 667 669 671 676 679
687 684 681 677 674 669 665 660 656 652 648 643 639 636 634 633 632 632 633 634 636 638 641 642 644 645 647 650 655 660 663 664 665 666 670 673 678 681
691 688 684 680 677 673 668 664 660 656 652 649 646 643 640 638 638 638 638 638 640 642 644 646 648 649 651 654 659 662 666 667 668 670 672 674 678 682
694 691 687 683 680 676 672 668 665 661 658 655 651 649 646 644 644 643 643 643 644 646 648 649 651 653 654 657 660 664 668 668 671 672 674 677 678 679
Wind_Speed
28 30 31 31 29 30 29 26 16 11 10 17 18 18 19 23 25 22 25 24 23 14 11 12 13 14 13 18 18 18 16 56 59 60 59 55 53 53
29 29 30 31 31 32 32 30 26 19 11 21 22 23 24 28 33 31 30 27 23 15 12 14 16 16 15 13 14 17 15 26 35 61 60 55 56 55
26 29 30 30 30 27 27 28 28 23 13 20 23 22 23 25 29 32 31 29 26 24 22 22 21 17 16 19 19 18 18 18 22 35 61 58 62 59
30 30 31 28 28 27 25 25 24 23 22 15 20 20 20 17 16 20 23 26 28 29 27 27 24 18 21 22 21 20 20 18 19 23 43 64 62 63
29 28 25 21 21 20 16 18 20 21 24 18 15 17 20 21 21 22 22 25 27 29 30 28 25 26 25 24 25 25 23 25 22 22 21 49 63 62
17 19 22 23 24 25 25 24 21 21 21 21 22 19 18 19 20 17 21 26 30 31 34 32 30 26 26 26 25 26 24 24 25 22 24 25 53 68
27 29 30 29 26 26 25 26 25 26 27 26 26 24 24 21 19 20 17 20 26 27 29 30 26 25 26 25 26 27 29 26 24 23 26 25 35 61
29 27 29 30 32 33 32 30 29 27 25 23 21 19 22 20 21 22 21 12 7 10 12 18 17 20 21 23 25 26 26 26 26 25 25 26 24 39
28 28 28 26 27 29 31 31 31 32 32 31 27 26 25 21 19 21 22 18 17 20 14 12 17 18 18 19 20 23 27 28 28 28 28 28 29 29
29 29 28 30 31 29 28 28 27 30 30 29 30 31 31 28 26 26 26 27 27 24 22 11 15 21 19 19 21 24 25 27 28 28 29 32 31 34
27 26 26 28 30 30 30 28 31 30 31 30 33 34 31 29 27 27 22 19 11 21 23 19 18 14 17 24 21 24 24 29 30 28 27 31 34 34
26 27 27 30 32 33 32 30 28 29 27 27 26 27 31 34 34 33 26 19 15 7 22 21 12 10 6 10 13 15 18 22 28 30 28 30 34 33
26 27 27 29 29 31 29 27 28 30 26 26 25 25 25 27 28 29 32 29 20 16 16 20 16 16 10 5 10 16 20 26 28 28 26 26 33 35
27 26 27 26 25 22 24 28 27 29 27 25 24 22 23 25 26 28 29 31 31 29 22 23 21 19 8 4 4 12 21 23 23 23 22 28 28 29
20 21 20 20 19 16 15 15 18 20 21 21 22 23 22 24 25 26 26 26 27 28 30 31 30 26 28 21 10 6 7 11 14 13 10 14 19 24
18 20 17 19 16 15 17 15 14 16 20 21 22 24 20 19 20 26 23 20 19 21 26 32 34 31 23 25 20 11 9 5 7 8 6 6 14 23
13 20 20 21 20 20 20 20 20 17 16 15 13 14 16 17 18 20 20 18 18 14 13 20 29 29 26 21 12 13 12 10 8 8 7 9 11 14
15 12 16 17 17 17 19 20 20 21 20 11 6 9 12 13 14 17 18 14 13 11 10 17 23 16 10 5 8 10 11 10 10 12 12 10 8 10
13 15 15 17 18 18 18 18 18 23 19 14 6 5 10 13 13 13 12 12 8 11 14 16 18 8 2 2 2 5 9 11 14 12 13 6 7 10
17 15 16 18 17 18 20 19 21 23 24 21 15 12 7 5 7 9 11 9 11 7 8 10 8 7 3 5 4 3 7 13 15 12 15 13 13 12
16 16 18 19 20 19 20 22 23 22 21 21 20 16 13 9 9 7 7 8 11 8 6 5 2 6 6 12 7 6 8 7 12 17 19 15 9 8
17 16 17 17 19 19 20 21 22 22 22 21 19 18 15 11 8 7 8 9 8 8 6 9 9 12 7 4 5 9 15 23 18 14 14 7 8 4
16 16 17 18 18 19 19 20 20 21 20 18 19 18 16 16 12 11 11 10 11 13 13 12 9 7 6 12 14 9 15 15 17 21 19 15 4 4
Wind_Direction
294 293 290 287 286 286 285 280 273 286 286 296 298 298 296 308 312 311 315 314 304 312 311 319 321 319 317 281 276 293 286 215 215 209 210 215 212 214
295 293 290 289 287 286 286 285 280 275 281 286 287 289 292 293 295 299 302 309 307 295 311 315 307 305 315 328 315 302 308 268 230 216 214 212 212 213
296 296 293 293 291 289 286 285 284 282 280 287 289 294 296 296 295 296 294 293 295 297 301 303 300 296 304 308 309 311 316 300 262 239 212 211 211 212
298 295 293 292 288 288 283 281 281 284 285 289 290 291 290 290 295 297 298 295 290 287 295 289 283 288 296 299 301 304 310 306 295 278 229 214 213 211
294 294 292 291 286 283 279 281 284 284 284 288 284 286 285 289 290 290 292 293 296 293 287 280 281 287 291 292 293 289 296 303 290 279 268 225 217 215
295 293 290 287 284 286 288 288 288 285 281 280 281 276 274 277 283 291 298 294 298 292 287 285 275 271 283 287 286 287 291 285 287 277 273 261 230 218
300 296 293 289 283 278 277 279 279 276 276 276 274 276 268 268 269 282 273 287 287 298 288 278 267 274 273 274 278 283 290 285 274 273 268 269 247 223
299 295 291 287 282 281 279 277 269 266 266 267 272 267 270 267 264 260 261 270 274 278 342 298 271 263 266 273 276 281 287 290 283 268 262 261 267 245
296 292 290 285 281 280 282 280 276 268 261 260 262 262 266 260 253 256 249 248 251 263 290 298 294 284 283 280 283 290 292 291 287 271 264 250 252 250
297 293 287 285 285 281 277 270 271 267 265 258 254 256 257 255 247 245 247 251 257 254 262 268 286 296 298 292 284 284 288 295 287 272 269 255 247 244
300 292 285 283 282 281 279 265 271 265 267 263 258 258 254 252 250 242 236 237 241 244 246 249 253 273 294 290 287 286 287 293 287 274 268 260 247 243
297 292 289 284 283 282 278 272 268 262 265 265 262 260 258 253 250 245 236 226 228 214 235 228 228 248 291 274 287 284 288 298 299 283 276 261 248 245
294 296 294 295 291 282 279 277 267 271 268 266 270 263 253 252 249 244 239 235 235 230 233 231 236 213 206 269 289 303 301 305 300 297 291 268 252 247
297 297 300 308 310 314 287 271 275 272 268 262 257 252 248 241 241 241 240 240 235 236 236 232 236 224 215 217 255 294 298 296 294 294 290 283 258 247
321 321 324 325 321 323 321 300 286 275 263 254 248 252 245 239 238 241 247 246 245 241 238 241 236 239 240 249 246 254 296 295 284 278 259 225 220 212
349 343 343 351 349 348 346 344 326 297 268 255 244 244 244 237 234 228 231 242 245 248 238 240 242 229 226 228 237 237 254 262 277 256 215 182 175 178
340 4 1 356 350 351 350 354 360 355 321 314 248 228 227 229 238 231 235 240 240 225 224 217 225 221 220 228 212 232 236 235 238 214 172 116 108 141
12 360 6 354 352 353 353 351 356 357 355 311 285 248 238 234 228 226 231 234 220 184 165 155 158 146 139 136 210 184 205 194 185 182 165 125 101 143
8 9 358 5 359 358 357 358 353 0 10 14 2 327 258 236 235 216 218 202 160 156 157 163 163 151 126 143 89 171 192 178 168 154 157 140 123 134
13 9 5 3 1 4 6 5 7 13 20 20 31 36 62 103 121 148 161 145 137 135 146 177 171 158 144 160 137 115 199 190 160 133 112 136 142 143
9 9 16 17 13 10 15 25 27 23 23 29 33 32 36 59 72 80 101 132 142 136 122 129 169 207 138 133 96 88 116 186 196 168 145 127 129 130
22 22 23 28 30 29 29 28 29 31 30 32 35 38 42 56 63 84 104 119 114 124 115 120 127 135 119 99 104 110 97 99 113 127 159 159 165 154
24 30 33 34 32 33 35 36 32 33 34 35 39 43 49 57 71 86 97 106 112 108 116 119 116 87 86 129 128 120 124 111 104 99 95 86 114 121